sat.trackr.live / text

‹ back to catalog

STARLINK-31710

NORAD 59378 · 2024-062E

PAYLOAD ACTIVE UNKNOWN

§ Identity

Operator
Country
US
Launch date
2024-04-02
Launch site
AFWTR
Launch vehicle
Mass (kg)
RCS (m²)

Purposes: comms

External: N2YO · Heavens-Above · Gunter

§ Orbital elements

Epoch: 2026-09-20T00:55:34.002336Z

Period
93.85 min
Inclination
53.1581°
Eccentricity
0.0000777
Mean motion
15.34388889 rev/d
Perigee alt
462.2 km
Apogee alt
463.3 km
Semi-major
6,840.9 km
B*
3.2727e-5
RAAN
69.6316°
Arg perigee
106.8806°
Mean anomaly
253.2282°
Rev number
13,943

§ Raw data

STARLINK-317101 59378U 24062E   26263.03858799  .00000730  00000+0  32727-4 0  99982 59378  53.1581  69.6316 0000777 106.8806 253.2282 15.34388889139439

JSON: /api/v1/satellites/59378 · /tle

For live sub-satellite position, see the globe view (requires WebGL).

§ Visibility from observer

Set your observer location to see the next 7 days of passes ≥ 10°. The values pass through the URL so the page stays shareable.

No JS? Fill the form by hand. The geolocation button needs JavaScript.